Regional Weather Roundup
Issued by NWS Upton, NY

Home | Current Version | Previous Version | Text Only | Print | Product List | Glossary On
Versions: 1 2 3 4 5 6 7 8 9 10 11 12 13 14 15 16 17 18 19 20 21 22 23 24 25 26 27 28 29 30 31 32 33 34 35 36 37 38 39 40 41 42 43 44 45 46 47 48 49 50
000
ASUS41 KOKX 281308
RWROKX

REGIONAL WEATHER ROUNDUP
NATIONAL WEATHER SERVICE NEW YORK NY
900 AM EDT THU MAY 28 2015

NOTE: "FAIR" INDICATES FEW OR NO CLOUDS BELOW 12,000 FEET WITH NO
SIGNIFICANT WEATHER AND/OR OBSTRUCTIONS TO VISIBILITY.

NYZ071-072-176-178-NJZ106-104-281400-
NEW YORK CITY METRO AREA


CITY           SKY/WX    TMP DP  RH WIND       PRES   REMARKS
CENTRAL PARK   CLOUDY    73  63  70 SE3       30.20R
LAGUARDIA APRT CLOUDY    70  63  78 S7        30.17R
KENNEDY INTL   CLOUDY    65  60  84 S10       30.18F
NEWARK/LIBERTY CLOUDY    72  68  87 W9        30.17R
BRNX BOT. GARD   N/A     68  63  83 SE3       30.20R
TETERBORO      CLOUDY    72  67  84 S9        30.15R HAZE
$$

NYZ177-179-078>081-281400-
LONG ISLAND NEW YORK

CITY           SKY/WX    TMP DP  RH WIND       PRES   REMARKS
FARMINGDALE    CLOUDY    65  61  87 S13       30.19S
ISLIP          CLOUDY    66  62  87 SW10      30.18S
SHIRLEY        CLOUDY    64  62  93 SW8       30.20S
WESTHAMPTON    RAIN      62  60  93 SW10      30.21S FOG
MONTAUK POINT    N/A     62  59  90 S9        30.22R
$$

NYZ052-065-067-281400-
HUDSON VALLEY

CITY           SKY/WX    TMP DP  RH WIND       PRES   REMARKS
WHITE PLAINS   CLOUDY    67  64  90 VRB5      30.17R FOG
NEWBURGH       PTSUNNY   72  70  94 W9        30.16S
MONTGOMERY     PTSUNNY   74  69  85 SW10      30.14S
POUGHKEEPSIE   MOSUNNY   74  68  81 S7        30.13S
ALBANY         PTSUNNY   71  65  81 S9        30.11R
$$

NJZ001-105-106-008-010-013-015-019>022-104-281400-
NEW JERSEY

CITY           SKY/WX    TMP DP  RH WIND       PRES   REMARKS
NEWARK/LIBERTY CLOUDY    72  68  87 W9        30.17R
TETERBORO      CLOUDY    72  67  84 S9        30.15R HAZE
CALDWELL       CLOUDY    72  67  84 VRB5      30.17R
MORRISTOWN     CLOUDY    77  73  88 SW6       30.17R FOG
SOMERVILLE     CLOUDY    71  68  90 CALM      30.15S
SUSSEX         CLOUDY    72  67  84 SW6       30.17S HAZE
ANDOVER          N/A     71  68  90 SW6       30.17R
TRENTON        CLOUDY    72  69  90 S6        30.17S
MILLVILLE      CLOUDY    75  69  81 SW5       30.18S
ATLANTIC CITY  PTSUNNY   76  67  73 SW8       30.19S
WRIGHTSTOWN    CLOUDY    73  69  89 SW9       30.16S
TOMS RIVER     MOSUNNY  N/A N/A N/A SW10      30.18S
BELMAR         CLOUDY    73  64  73 W8        30.19R
$$

PAZ047>061-062-071-281400-
EASTERN PENNSYLVANIA

CITY           SKY/WX    TMP DP  RH WIND       PRES   REMARKS
PHILADELPHIA   CLOUDY    74  69  85 S6        30.18R
ALLENTOWN      CLOUDY    73  68  84 SW5       30.18R
SCRANTON       MOSUNNY   73  65  75 SW6       30.17S
$$

CTZ002-004>006-009-010-012-RIZ004-006-007-MAZ004-011-015-281400-
SOUTHERN NEW ENGLAND
 IN CT

CITY           SKY/WX    TMP DP  RH WIND       PRES   REMARKS
BRADLEY INTL   CLOUDY    69  64  84 S9        30.15R
HARTFORD       CLOUDY    68  64  87 S7        30.16R
DANBURY        CLOUDY    71  65  81 SW6       30.18R
WTRBRY/OXFORD  CLOUDY    66  63  88 SW5       30.19S VSB 3/4
BRIDGEPORT     CLOUDY    66  61  84 SW8       30.18R
MERIDEN        CLOUDY    68  62  81 S8        30.17S
NEW HAVEN      CLOUDY    64  61  90 S5        30.18S
CHESTER        CLOUDY    66  63  88 S7        30.20S FOG
GROTON         CLOUDY    62  58  86 S6        30.20R
WILLIMANTIC    CLOUDY    68  63  84 S8        30.18S

 IN RI

CITY           SKY/WX    TMP DP  RH WIND       PRES   REMARKS
PROVIDENCE     PTSUNNY   69  62  78 S10       30.19S
BLOCK ISLAND   CLOUDY    61  57  88 SW17      30.22S
WESTERLY       CLOUDY    65  59  81 VRB5      30.21S

 IN MA

CITY           SKY/WX    TMP DP  RH WIND       PRES   REMARKS
BOSTON         PTSUNNY   72  63  73 S13       30.14S
WORCESTER      PTSUNNY   71  63  75 SW12      30.16F
WESTFIELD      CLOUDY    69  65  86 S7        30.14S
PROVINCETOWN   SUNNY     64  57  77 SW20G26   30.18F
NANTUCKET      CLOUDY    63  58  83 SW15      30.23R
$$

ANZ330-335-338-340-345-350-353-355-281400-
COASTAL MARINE OBSERVATIONS


STATION/POSITION TIME  SKY/WX   TEMP    WIND        PRES    VSBY  WAVE
                                AIR SEA DIR/SP/G                  HT/PER
                 (UTC)          (F)     (DEG/KT/KT) (MB)    (MI)  (FT/S)
NY HARB ENTRANCE 1250            57 49  190/ 10/ 12 1022.0          3/ 6
4S FIRE IS       1203               56                N/A           4/ 6
20S FIRE ISLAND  1250            60 57  190/ 10/ 10 1022.6          4/ 6
GREAT SOUTH BAY  1215            62 67  200/ 14/ 17   N/A
23SW MTP         1250            58 54  210/ 12/ 14 1022.6          4/ 6
HUDSON CANYON    NOT AVBL
KINGS POINT      1200            66 56  180/  8/ 10 1020.8
CENTRAL LI SOUND 1200            60 56  350/  2/  4   N/A
EASTERN LI SOUND 1200            58      CALM  /  4   N/A
ROBBINS REEF     1200            67     170/ 11/ 11 1020.4
$$


>>>>>>>>>>>>>>>>>>>>>>>>>>>> KEY <<<<<<<<<<<<<<<<<<<<<<<<<<<
>                                                          <
>     SKY/WX - SKY CONDITION/PRESENT WEATHER               <
>     TMP    - TEMPERATURE IN FAHRENHEIT                   <
>     DP     - DEWPOINT IN FAHRENHEIT                      <
>     RH     - RELATIVE HUMIDITY IN PERCENT                <
>     WIND   - DIRECTION AND SPEED IN MPH                  <
>     PRES   - MEAN SEA LEVEL PRESSURE IN INCHES OF HG     <
>     WCI    - WIND CHILL INDEX                            <
>     VSB    - VISIBILITY IN MILES                         <
>     HX     - HEAT INDEX                                  <
>     TC     - TEMPERATURE IN CELSIUS                      <
>     VRB    - VARIABLE WIND DIRECTION                     <
>                                                          <
>>>>>>>>>>>>>>>>>>>>>>>>>>>> KEY <<<<<<<<<<<<<<<<<<<<<<<<<<<




USA.gov is the U.S. government's official web portal to all federal, state and local government web resources and services.